logo tempoitalia

Diretta Meteo Mestia, Georgialunedì 31 agosto ore 09:00

Mappa
Sereno 13 °C Molto Nuvoloso 24 Ore: T.min 9 T.max 27
Ponente Nord Km/h 1.8 Punto di rugiada: 13 °C Umidità: 100% Visibilità: 10 Km
Il sole sorge alle: 06:32 Il sole tramonta alle: 19:46
31 Agosto 2026 09:00 tempo osservato: Molto Nuvoloso Molto Nuvoloso 13 100 1019 vento: Nord N 1.8
31 Agosto 2026 08:30 tempo osservato: Sereno Sereno 13 100 0 vento: Nord N 1.8
31 Agosto 2026 08:00 tempo osservato: Coperto Coperto 12 100 1019 vento: Nord N 1.8
31 Agosto 2026 07:30 tempo osservato: Sereno Sereno 12 93 1019 vento: Nord N 1.8
31 Agosto 2026 07:00 tempo osservato: Sereno Sereno 11 100 1019 vento: Nord N 3.7
31 Agosto 2026 06:30 tempo osservato: Sereno Sereno 11 100 1019 vento: Nord N 1.8
31 Agosto 2026 06:00 tempo osservato: Sereno Sereno 11 100 1019 vento: Nord N 1.8
31 Agosto 2026 05:30 tempo osservato: Sereno Sereno 11 100 1019 vento: Nord N 3.7
31 Agosto 2026 05:00 tempo osservato: Sereno Sereno 11 100 1019 vento: Nord N 3.7
31 Agosto 2026 04:30 tempo osservato: Sereno Sereno 11 93 1019 vento: Nord N 1.8
31 Agosto 2026 04:00 tempo osservato: Sereno Sereno 11 100 1019 vento: Nord N 3.7
31 Agosto 2026 03:30 tempo osservato: Sereno Sereno 10 100 1019 vento: Nord N 1.8
31 Agosto 2026 03:00 tempo osservato: Sereno Sereno 11 100 1020 vento: Nord N 3.7
31 Agosto 2026 02:30 tempo osservato: Sereno Sereno 10 100 1020 vento: Nord N 5.5
31 Agosto 2026 02:00 tempo osservato: Sereno Sereno 9 100 1020 vento: Nord N 5.5
31 Agosto 2026 01:30 tempo osservato: Sereno Sereno 10 100 1019 vento: Nord N 1.8
31 Agosto 2026 01:00 tempo osservato: Sereno Sereno 10 100 1019 vento: Nord N 3.7
31 Agosto 2026 00:30 tempo osservato: Sereno Sereno 11 93 1019 vento: Nord N 3.7
31 Agosto 2026 00:00 tempo osservato: Sereno Sereno 11 100 1019 vento: Nord NE 7.4
30 Agosto 2026 23:30 tempo osservato: Sereno Sereno 12 93 1019 vento: Nord N 5.5
30 Agosto 2026 23:00 tempo osservato: Sereno Sereno 12 93 1019 vento: Nord NE 7.4
30 Agosto 2026 22:30 tempo osservato: Sereno Sereno 14 87 1019 vento: Nord NE 7.4
30 Agosto 2026 22:00 tempo osservato: Sereno Sereno 14 82 1019 vento: Nord N/NE 11.1
30 Agosto 2026 21:30 tempo osservato: Sereno Sereno 15 76 1020 vento: Nord N 5.5
30 Agosto 2026 21:00 tempo osservato: Sereno Sereno 16 63 1020 vento: Nord E 24
30 Agosto 2026 20:30 tempo osservato: Sereno Sereno 17 55 1019 vento: Nord NE 16.7
30 Agosto 2026 20:00 tempo osservato: Sereno Sereno 19 42 1018 vento: Nord N 25.9
30 Agosto 2026 19:30 tempo osservato: Sereno Sereno 20 39 1018 vento: Nord N 25.9
30 Agosto 2026 19:00 tempo osservato: Sereno Sereno 21 43 1016 vento: Nord N 24
30 Agosto 2026 18:30 tempo osservato: Sereno Sereno 23 40 1015 vento: Nord N 3.7
30 Agosto 2026 18:00 tempo osservato: Sereno Sereno 24 35 1015 vento: Nord N 7.4
30 Agosto 2026 17:30 tempo osservato: Sereno Sereno 25 36 1015 vento: Nord E/SE 22.2
30 Agosto 2026 17:00 tempo osservato: Sereno Sereno 26 36 1015 vento: Nord SE 16.7
30 Agosto 2026 16:30 tempo osservato: Sereno Sereno 27 34 1014 vento: Nord E 11.1
30 Agosto 2026 16:00 tempo osservato: Sereno Sereno 27 32 1014 vento: Nord N 3.7
30 Agosto 2026 15:30 tempo osservato: Sereno Sereno 27 32 1015 vento: Nord N 5.5
30 Agosto 2026 15:00 tempo osservato: Molto Nuvoloso Molto Nuvoloso 26 36 1015 vento: Nord N 5.5
30 Agosto 2026 14:30 tempo osservato: Molto Nuvoloso Molto Nuvoloso 26 36 1015 vento: Nord N 5.5
30 Agosto 2026 14:00 tempo osservato: Molto Nuvoloso Molto Nuvoloso 26 36 1016 vento: Nord S/SO 9.3
30 Agosto 2026 13:30 tempo osservato: Molto Nuvoloso Molto Nuvoloso 24 43 1016 vento: Nord N 3.7
30 Agosto 2026 13:00 tempo osservato: Nuvoloso Nuvoloso 24 41 1016 vento: Nord N 1.8
30 Agosto 2026 12:30 tempo osservato: Nuvoloso Nuvoloso 23 43 1016 vento: Nord N 3.7
30 Agosto 2026 12:00 tempo osservato: Nuvoloso Nuvoloso 21 52 1017 vento: Nord N 3.7
30 Agosto 2026 11:30 tempo osservato: Nuvoloso Nuvoloso 19 59 1017 vento: Nord N 5.5
30 Agosto 2026 11:00 tempo osservato: Molto Nuvoloso Molto Nuvoloso 18 67 1017 vento: Nord N 3.7
30 Agosto 2026 10:30 tempo osservato: Molto Nuvoloso Molto Nuvoloso 16 77 1018 vento: Nord N 5.5
30 Agosto 2026 10:00 tempo osservato: Molto Nuvoloso Molto Nuvoloso 14 87 1018 vento: Nord N 3.7